Location: Franzen
(48.6167°N, 15.3833°E)
Time: 08:28:07
(UTC+00:00)

Altair - Pass Details

Date: 02 August 2021
Orbit: 1501 x 1682 km, 47.2° (Epoch: 20 September)

Event Time Altitude Azimuth Distance (km) Brightness Sun altitude
Rises 23:03:25 0° 206° (SSW) 4,780 - -23.9°
Reaches altitude 10° 23:06:56 10° 197° (SSW) 3,770 - -23.9°
Exits shadow 23:13:57 32° 150° (SSE) 2,411 8.1 -23.8°
Maximum altitude 23:15:02 33° 138° (SE) 2,375 8.1 -23.8°
Drops below altitude 10° 23:22:55 10° 79° (E) 3,679 9.7 -23.8°
Sets 23:26:17 0° 71° (ENE) 4,650 10.4 -23.7°
